Monterey, CA

4:27 AM PST on November 21, 2017 (GMT -0800)
Monterey Peninsula

Weather History for KMRY - October, 2012

Change the Weather History Date:

Wednesday, October 24, 2012

  Actual Average Record
Temperature  
Mean Temperature 57 °F 58 °F  
Max Temperature 66 °F 67 °F 96 °F (2017)
Min Temperature 48 °F 49 °F 44 °F (1999)
Degree Days  
Heating Degree Days 8    
Month to date heating degree days 104  
Since 1 July heating degree days 633  
Cooling Degree Days 0    
Month to date cooling degree days 26  
Year to date cooling degree days 26  
Growing Degree Days 8 (Base 50)    
Moisture  
Dew Point 46 °F    
Average Humidity 68    
Maximum Humidity 83    
Minimum Humidity 52    
Precipitation  
Precipitation 0.00 in - 0.62 in (1998)
Month to date precipitation 0.59  
Year to date precipitation 8.31  
Since 1 July precipitation 0.66  
Sea Level Pressure  
Sea Level Pressure 30.17 in    
Wind  
Wind Speed 6 mph (SE)    
Max Wind Speed 16 mph    
Max Gust Speed 22 mph    
Visibility 10 miles    
Events      
T = Trace of Precipitation, MM = Missing Value Source: NWS Daily Summary

Daily Weather History Graph

Daily Weather History Graph

Search for Another Location

Airport or City:

Trip Planner

Search our weather history database for the weather conditions in past years. The results will help you decide how hot, cold, wet, or windy it might be!

Date:

Astronomy

Oct. 24, 2012 Rise Set
Actual Time 7:23 AM PDT 6:18 PM PDT
Civil Twilight 6:57 AM PDT 6:45 PM PDT
Nautical Twilight 6:26 AM PDT 7:15 PM PDT
Astronomical Twilight 5:56 AM PDT 7:45 PM PDT
Moon 3:31 PM PDT (10/24) 2:31 AM PDT (10/24)
Length of Visible Light 11h 48m
Length of Day
10h 55m
Waxing Gibbous, 77% of the Moon is Illuminated
Oct 24
Waxing Gibbous
Oct 29
Full
Nov 6
Last Quarter
Nov 13
New
Nov 20
First Quarter

Hourly Weather History & Observations

Time (PDT) Temp. Dew Point Humidity Pressure Visibility Wind Dir Wind Speed Gust Speed Precip Events Conditions
12:54 AM 50.0 °F 42.1 °F 74% 30.11 in 10.0 mi ESE 3.5 mph - N/A   Clear
1:54 AM 51.1 °F 42.1 °F 71% 30.11 in 10.0 mi ESE 4.6 mph - N/A   Mostly Cloudy
2:54 AM 50.0 °F 41.0 °F 71% 30.12 in 10.0 mi ESE 6.9 mph - N/A   Clear
3:54 AM 50.0 °F 39.9 °F 68% 30.11 in 10.0 mi ESE 8.1 mph - N/A   Partly Cloudy
4:54 AM 50.0 °F 39.0 °F 66% 30.12 in 10.0 mi ESE 9.2 mph - N/A   Clear
5:54 AM 51.1 °F 37.9 °F 61% 30.12 in 10.0 mi East 11.5 mph - N/A   Overcast
6:54 AM 52.0 °F 37.9 °F 59% 30.13 in 10.0 mi East 8.1 mph - N/A   Overcast
7:54 AM 53.1 °F 39.0 °F 59% 30.14 in 10.0 mi East 5.8 mph - N/A   Mostly Cloudy
8:54 AM 57.0 °F 44.1 °F 62% 30.15 in 10.0 mi Calm Calm - N/A   Mostly Cloudy
9:54 AM 62.1 °F 48.0 °F 60% 30.17 in 10.0 mi SSW 9.2 mph - N/A   Partly Cloudy
10:54 AM 63.0 °F 48.9 °F 60% 30.18 in 10.0 mi SSW 11.5 mph - N/A   Clear
12:54 PM 66.0 °F 48.9 °F 54% 30.20 in 10.0 mi West 11.5 mph - N/A   Clear
1:54 PM 64.0 °F 50.0 °F 60% 30.19 in 10.0 mi SSW 10.4 mph - N/A   Partly Cloudy
2:54 PM 64.9 °F 50.0 °F 58% 30.18 in 10.0 mi WSW 8.1 mph - N/A   Clear
3:54 PM 64.9 °F 48.9 °F 56% 30.19 in 10.0 mi SW 8.1 mph - N/A   Clear
4:54 PM 63.0 °F 50.0 °F 63% 30.20 in 10.0 mi SW 8.1 mph - N/A   Clear
5:54 PM 61.0 °F 51.1 °F 70% 30.20 in 10.0 mi WNW 5.8 mph - N/A   Clear
6:54 PM 59.0 °F 51.1 °F 75% 30.21 in 10.0 mi Calm Calm - N/A   Clear
7:54 PM 55.9 °F 48.9 °F 77% 30.22 in 10.0 mi ESE 3.5 mph - N/A   Mostly Cloudy
8:54 PM 54.0 °F 48.9 °F 83% 30.23 in 10.0 mi ENE 3.5 mph - N/A   Overcast
9:54 PM 55.9 °F 48.9 °F 77% 30.23 in 10.0 mi Calm Calm - N/A   Overcast
10:54 PM 57.0 °F 46.9 °F 69% 30.24 in 10.0 mi Calm Calm - N/A   Overcast
11:54 PM 57.0 °F 46.0 °F 67% 30.25 in 10.0 mi ESE 3.5 mph - N/A   Overcast